• In Switzerland
  • List of Countries
  • For 7 days
  • Water Temperature
  • Satellite Maps
  • Weather Map
  • Weather Widgets
  • user-avatar
    Login

    Hourly Weather Thimphu

    Today, 22 May, Tuesday

    Time Temperature Precipitation Wind Pressure Humidity
    00:00 +11°C° 0 mm 1 mps 525 mmHg 91%
    01:00 +11°C° 0 mm 1 mps 525 mmHg 90%
    02:00 +11°C° 0 mm 1 mps 525 mmHg 89%
    03:00 +10°C° 0 mm 1 mps 524 mmHg 88%
    04:00 +10°C° 0.1 mm 0 mps 525 mmHg 87%
    05:00 +10°C° 0.1 mm 0 mps 525 mmHg 85%
    06:00 +11°C° 0 mm 0 mps 526 mmHg 81%
    07:00 +14°C° 0.1 mm 1 mps 527 mmHg 77%
    08:00 +15°C° 0.1 mm 1 mps 528 mmHg 73%
    09:00 +18°C° 0.1 mm 1 mps 529 mmHg 69%
    10:00 +17°C° 0.3 mm 2 mps 529 mmHg 68%
    11:00 +18°C° 0.3 mm 2 mps 529 mmHg 67%
    12:00 +18°C° 0.3 mm 2 mps 529 mmHg 66%
    13:00 +18°C° 0.8 mm 2 mps 529 mmHg 68%
    14:00 +18°C° 0.8 mm 3 mps 528 mmHg 70%
    15:00 +17°C° 0.8 mm 3 mps 528 mmHg 73%
    16:00 +16°C° 0.7 mm 2 mps 527 mmHg 78%
    17:00 +15°C° 0.7 mm 2 mps 527 mmHg 84%
    18:00 +14°C° 0.7 mm 1 mps 526 mmHg 89%
    19:00 +13°C° 0.2 mm 1 mps 526 mmHg 90%
    20:00 +13°C° 0.2 mm 1 mps 526 mmHg 91%
    21:00 +12°C° 0.2 mm 1 mps 526 mmHg 93%
    22:00 +12°C° 0.1 mm 1 mps 526 mmHg 92%
    23:00 +12°C° 0.1 mm 1 mps 526 mmHg 92%

    Tomorrow, 23 May, Wednesday

    Time Temperature Precipitation Wind Pressure Humidity
    00:00 +12°C° 0.1 mm 1 mps 526 mmHg 92%
    01:00 +11°C° 0.1 mm 1 mps 525 mmHg 91%
    02:00 +11°C° 0.1 mm 1 mps 525 mmHg 91%
    03:00 +10°C° 0.1 mm 0 mps 525 mmHg 90%
    04:00 +10°C° 0.3 mm 0 mps 525 mmHg 89%
    05:00 +10°C° 0.3 mm 0 mps 525 mmHg 89%
    06:00 +10°C° 0.3 mm 0 mps 525 mmHg 88%
    07:00 +12°C° 0.7 mm 1 mps 526 mmHg 87%
    08:00 +12°C° 0.7 mm 1 mps 526 mmHg 86%
    09:00 +13°C° 0.7 mm 1 mps 527 mmHg 84%
    10:00 +13°C° 0.8 mm 1 mps 527 mmHg 83%
    11:00 +14°C° 0.8 mm 2 mps 527 mmHg 82%
    12:00 +14°C° 0.8 mm 2 mps 527 mmHg 80%
    13:00 +14°C° 0.3 mm 2 mps 526 mmHg 79%
    14:00 +15°C° 0.3 mm 2 mps 526 mmHg 79%
    15:00 +15°C° 0.3 mm 2 mps 526 mmHg 78%
    16:00 +14°C° 0.1 mm 2 mps 525 mmHg 81%
    17:00 +13°C° 0.1 mm 1 mps 525 mmHg 85%
    18:00 +13°C° 0.1 mm 1 mps 525 mmHg 89%
    19:00 +12°C° 0.1 mm 1 mps 525 mmHg 90%
    20:00 +12°C° 0.1 mm 1 mps 525 mmHg 92%
    21:00 +10°C° 0.1 mm 0 mps 525 mmHg 94%
    22:00 +10°C° 0.1 mm 0 mps 525 mmHg 93%
    23:00 +11°C° 0.1 mm 1 mps 525 mmHg 93%

    Day after tomorrow, 24 May, Thursday

    Time Temperature Precipitation Wind Pressure Humidity
    00:00 +11°C° 0.1 mm 1 mps 525 mmHg 93%
    01:00 +9°C° 0.1 mm 0 mps 524 mmHg 92%
    02:00 +9°C° 0.1 mm 0 mps 524 mmHg 92%
    03:00 +9°C° 0.1 mm 0 mps 523 mmHg 91%
    04:00 +9°C° 0.1 mm 0 mps 524 mmHg 90%
    05:00 +9°C° 0.1 mm 0 mps 524 mmHg 89%
    06:00 +9°C° 0.1 mm 0 mps 524 mmHg 87%
    07:00 +12°C° 0.1 mm 1 mps 525 mmHg 83%
    08:00 +13°C° 0.1 mm 1 mps 526 mmHg 78%
    09:00 +14°C° 0.1 mm 1 mps 527 mmHg 74%
    10:00 +15°C° 0.2 mm 2 mps 527 mmHg 72%
    11:00 +15°C° 0.2 mm 2 mps 527 mmHg 71%
    12:00 +16°C° 0.2 mm 2 mps 527 mmHg 69%
    13:00 +16°C° 0.1 mm 2 mps 527 mmHg 70%
    14:00 +16°C° 0.1 mm 2 mps 526 mmHg 70%
    15:00 +16°C° 0.1 mm 2 mps 526 mmHg 70%
    16:00 +15°C° 0.1 mm 2 mps 525 mmHg 75%
    17:00 +14°C° 0.1 mm 2 mps 524 mmHg 80%
    18:00 +13°C° 0.1 mm 2 mps 524 mmHg 85%
    19:00 +13°C° 0.1 mm 1 mps 524 mmHg 88%
    20:00 +12°C° 0.1 mm 1 mps 524 mmHg 91%
    21:00 +11°C° 0.1 mm 1 mps 524 mmHg 93%
    22:00 +11°C° 0 mm 1 mps 524 mmHg 92%
    23:00 +11°C° 0 mm 1 mps 524 mmHg 91%

    25 May, Friday

    Time Temperature Precipitation Wind Pressure Humidity
    00:00 +11°C° 0 mm 1 mps 524 mmHg 91%
    01:00 +10°C° 0 mm 1 mps 524 mmHg 91%
    02:00 +10°C° 0 mm 1 mps 523 mmHg 91%
    03:00 +10°C° 0 mm 1 mps 523 mmHg 91%
    04:00 +10°C° 0 mm 1 mps 523 mmHg 89%
    05:00 +10°C° 0 mm 1 mps 523 mmHg 87%
    06:00 +10°C° 0 mm 1 mps 524 mmHg 86%
    07:00 +12°C° 0 mm 1 mps 525 mmHg 79%
    08:00 +14°C° 0 mm 1 mps 526 mmHg 72%
    09:00 +16°C° 0 mm 2 mps 528 mmHg 65%
    10:00 +16°C° 0.2 mm 2 mps 527 mmHg 66%
    11:00 +17°C° 0.2 mm 2 mps 527 mmHg 66%
    12:00 +17°C° 0.2 mm 2 mps 527 mmHg 67%
    13:00 +17°C° 0.4 mm 2 mps 526 mmHg 67%
    14:00 +17°C° 0.4 mm 2 mps 526 mmHg 67%
    15:00 +17°C° 0.4 mm 2 mps 526 mmHg 68%
    16:00 +16°C° 0.3 mm 2 mps 525 mmHg 72%
    17:00 +15°C° 0.3 mm 2 mps 524 mmHg 77%
    18:00 +14°C° 0.3 mm 2 mps 524 mmHg 82%
    19:00 +13°C° 0.1 mm 1 mps 524 mmHg 85%
    20:00 +12°C° 0.1 mm 1 mps 524 mmHg 88%
    21:00 +12°C° 0.1 mm 1 mps 524 mmHg 91%
    22:00 +11°C° 0.1 mm 1 mps 524 mmHg 91%
    23:00 +11°C° 0.1 mm 1 mps 524 mmHg 91%

    26 May, Saturday

    Time Temperature Precipitation Wind Pressure Humidity
    00:00 +11°C° 0.1 mm 1 mps 524 mmHg 91%
    01:00 +11°C° 0.1 mm 1 mps 524 mmHg 90%
    02:00 +10°C° 0.1 mm 1 mps 523 mmHg 90%
    03:00 +10°C° 0.1 mm 1 mps 523 mmHg 90%
    04:00 +11°C° 0 mm 1 mps 523 mmHg 89%
    05:00 +10°C° 0 mm 0 mps 524 mmHg 88%
    06:00 +10°C° 0 mm 0 mps 524 mmHg 87%
    07:00 +12°C° 0.1 mm 1 mps 525 mmHg 82%
    08:00 +14°C° 0.1 mm 1 mps 526 mmHg 77%
    09:00 +15°C° 0.1 mm 2 mps 527 mmHg 72%
    10:00 +15°C° 0.3 mm 2 mps 527 mmHg 72%
    11:00 +16°C° 0.3 mm 2 mps 527 mmHg 72%
    12:00 +16°C° 0.3 mm 2 mps 527 mmHg 72%
    13:00 +16°C° 0.3 mm 2 mps 526 mmHg 72%
    14:00 +16°C° 0.3 mm 2 mps 526 mmHg 73%
    15:00 +16°C° 0.3 mm 2 mps 525 mmHg 73%
    16:00 +15°C° 0.1 mm 2 mps 525 mmHg 77%
    17:00 +14°C° 0.1 mm 2 mps 525 mmHg 81%
    18:00 +13°C° 0.1 mm 1 mps 524 mmHg 85%
    19:00 +13°C° 0 mm 1 mps 525 mmHg 87%
    20:00 +12°C° 0 mm 1 mps 525 mmHg 88%
    21:00 +12°C° 0 mm 1 mps 525 mmHg 90%
    22:00 +11°C° 0 mm 1 mps 525 mmHg 91%
    23:00 +11°C° 0 mm 1 mps 525 mmHg 91%

    27 May, Sunday

    Time Temperature Precipitation Wind Pressure Humidity
    00:00 +10°C° 0 mm 1 mps 524 mmHg 92%
    01:00 +11°C° 0 mm 1 mps 524 mmHg 91%
    02:00 +11°C° 0 mm 1 mps 524 mmHg 89%
    03:00 +11°C° 0 mm 1 mps 524 mmHg 88%
    04:00 +11°C° 0.1 mm 1 mps 524 mmHg 87%
    05:00 +11°C° 0.1 mm 1 mps 525 mmHg 87%
    06:00 +11°C° 0.1 mm 1 mps 525 mmHg 86%
    07:00 +12°C° 0.1 mm 1 mps 525 mmHg 83%
    08:00 +13°C° 0.1 mm 1 mps 526 mmHg 81%
    09:00 +13°C° 0.1 mm 1 mps 526 mmHg 78%
    10:00 +14°C° 0.2 mm 2 mps 527 mmHg 74%
    11:00 +15°C° 0.2 mm 2 mps 527 mmHg 71%
    12:00 +17°C° 0.2 mm 2 mps 527 mmHg 67%
    13:00 +17°C° 0.4 mm 2 mps 527 mmHg 67%
    14:00 +17°C° 0.4 mm 2 mps 526 mmHg 68%
    15:00 +17°C° 0.4 mm 2 mps 526 mmHg 68%
    16:00 +16°C° 0.3 mm 2 mps 525 mmHg 74%
    17:00 +15°C° 0.3 mm 2 mps 525 mmHg 79%
    18:00 +14°C° 0.3 mm 2 mps 524 mmHg 85%
    19:00 +13°C° 0.1 mm 2 mps 524 mmHg 87%
    20:00 +12°C° 0.1 mm 1 mps 524 mmHg 90%
    21:00 +12°C° 0.1 mm 1 mps 524 mmHg 92%
    22:00 +11°C° 0.1 mm 1 mps 524 mmHg 91%
    23:00 +11°C° 0.1 mm 1 mps 524 mmHg 91%
    Show more